Location: The Saddle
(36.8333°N, 80.3417°W)
Time: 15:30:13
(UTC-04:00)

SL-16 DEB - Visible Passes

Search period start: 22 April 2024 00:00
Search period end: 02 May 2024 00:00
Orbit: 733 x 894 km, 71.1° (Epoch: 21 April)

Date Brightness Start Highest point End Pass type
(mag) Time Alt. Az. Time Alt. Az. Time Alt. Az.
22 Apr ? 05:35:25 10° N 05:40:37 46° ENE 05:46:01 10° SE visible
22 Apr ? 20:19:21 10° SW 20:24:20 58° WNW 20:29:21 10° NNE visible
23 Apr ? 05:12:00 10° N 05:17:01 37° ENE 05:22:13 10° SE visible
24 Apr ? 04:48:37 10° N 04:53:22 30° ENE 04:58:15 10° ESE visible
24 Apr ? 21:19:41 10° WNW 21:21:12 11° NW 21:22:45 10° NNW visible
25 Apr ? 04:25:15 10° N 04:29:39 24° ENE 04:34:10 10° ESE visible
25 Apr ? 20:54:41 10° W 20:57:22 14° NW 21:00:04 10° NNW visible
26 Apr ? 04:01:55 10° N 04:05:51 20° ENE 04:09:53 10° ESE visible
26 Apr ? 05:44:12 10° NNW 05:49:31 54° WSW 05:55:04 10° S visible
26 Apr ? 20:30:07 10° W 20:33:30 18° NW 20:36:57 10° NNW visible
27 Apr ? 03:38:40 10° NNE 03:42:00 16° NE 03:45:24 10° E visible
27 Apr ? 05:20:24 10° NNW 05:25:51 69° WSW 05:31:31 10° S visible
28 Apr ? 03:15:37 10° NNE 03:18:05 13° NE 03:20:35 10° E visible
28 Apr ? 04:56:36 10° NNW 05:02:07 87° WSW 05:07:51 10° SSE visible
29 Apr ? 02:53:23 10° NE 02:54:06 10° NE 02:54:49 10° ENE visible
29 Apr ? 04:32:49 10° NNW 04:38:20 75° ENE 04:44:03 10° SSE visible
30 Apr ? 04:09:03 10° NNW 04:14:30 60° ENE 04:20:08 10° SE visible
30 Apr ? 05:54:01 10° WNW 05:57:22 16° W 06:00:47 10° SW visible
01 May ? 03:45:16 10° N 03:50:35 47° ENE 03:56:06 10° SE visible
01 May ? 05:29:32 10° NW 05:33:37 21° W 05:37:47 10° SSW visible
